Starlink 30859

operational
NORAD ID: 58371 Int'l Des: 2023-177 Owner: SPXS Country: US Constellation: starlink
LEOCIRCULAR

关于 Starlink 30859

正在加载描述...

实时位置

正在加载3D地球...

即将过境

高度历史

Altitude vs Time

uPlot chart will show altitude changes over time

两行轨道根数

1 58371U 23177W 26036.72789356 .00000773 00000-0 72276-4 0 9993
2 58371 43.0037 165.5941 0001743 268.9203 91.1439 15.02537793123419
Epoch: Feb 5, 2026 • Age: 20 hours

当前状态

高度 559.7 km
速度 7.58 km/s
星下点 -6.13°S, 9.17°E
发射日期 Nov 18, 2023
运行时间 2.2 years
类型 internet

技术详情

分类 Payload
质量 730.00 kg
干质量 700.00 kg
总质量 730.00 kg
长度 0.30 m
直径 4.10 m
跨度 29.00 m
形状 Box + pan
制造商 SPXS
平台类型 Starlink V2M
阶段状态 In Orbit
所有者/国家 SPXS/US

大型星座

Loading constellations...